DW2017 Weather Reports


time (UTC)temp
C
wind
direction
speed
KPH
gust
KPH
rain 1hr
cm
rain 24hr
cm
rain mn
cm
humidity
%
barometer
mb
20260504150706 4 0.0 0.0 0.15 0.18 0.18 86 1004.3
20260504150214 4 0.0 0.0 0.15 0.15 0.15 85 1004.4
20260504150207 4 0.0 0.0 0.15 0.15 0.15 85 1004.4
20260504141222 5 0.0 0.0 0.03 0.03 0.03 76 1004.3
20260504140714 5 0.0 0.0 0.03 0.03 0.03 75 1004.3
20260504140707 5 0.0 0.0 0.03 0.03 0.03 75 1004.3
20260504140207 5 0.0 0.0 0.00 0.00 0.00 73 1004.3
20260504130733 6 0.0 0.0 0.00 0.00 0.00 65 1004.3
20260504130212 6 0.0 0.0 0.00 0.03 0.00 65 1004.3
20260504130205 6 0.0 0.0 0.00 0.03 0.00 65 1004.3
20260504120206 4 0.0 0.0 0.00 0.03 0.00 71 1004.6
20260504110712 1 0.0 0.0 0.00 0.03 0.00 83 1004.7
20260504110705 1 0.0 0.0 0.00 0.03 0.00 83 1004.7
20260504110232 1 0.0 0.0 0.00 0.03 0.00 84 1004.7
20260504100213 0 0.0 0.0 0.00 0.03 0.00 84 1004.7
20260504100206 0 0.0 0.0 0.00 0.03 0.00 84 1004.7
20260504081712 0 0.0 0.0 0.00 0.03 0.00 81 1004.8
20260504081705 0 0.0 0.0 0.00 0.03 0.00 81 1004.8
20260504081213 0 0.0 0.0 0.00 0.03 0.00 81 1004.7
20260504081206 0 0.0 0.0 0.00 0.03 0.00 81 1004.7
20260504080724 0 0.0 0.0 0.00 0.03 0.00 81 1004.8
20260504080213 0 0.0 0.0 0.00 0.03 0.00 81 1004.9
20260504080206 0 0.0 0.0 0.00 0.03 0.00 81 1004.9
20260504070206 0 0.0 0.0 0.00 0.03 0.00 76 1005.1
20260504060213 1 0.0 0.0 0.00 0.03 0.00 74 1005.2
20260504060206 1 0.0 0.0 0.00 0.03 0.00 74 1005.2
20260504050722 1 0.0 0.0 0.00 0.03 0.00 72 1005.5
20260504050715 1 0.0 0.0 0.00 0.03 0.00 72 1005.5
20260504050212 1 0.0 0.0 0.00 0.03 0.00 71 1005.6
20260504050205 1 0.0 0.0 0.00 0.03 0.00 71 1005.6
20260504045737 1 0.0 0.0 0.00 0.03 0.00 71 1005.6
20260504045730 1 0.0 0.0 0.00 0.03 0.00 71 1005.6
20260504045207 1 0.0 0.0 0.00 0.03 0.00 71 1005.7
20260504044705 2 0.0 0.0 0.00 0.03 0.00 71 1005.7
20260504044213 2 0.0 0.0 0.00 0.03 0.00 71 1005.7
20260504044205 2 0.0 0.0 0.00 0.03 0.00 71 1005.7
20260504043734 2 0.0 0.0 0.00 0.03 0.00 71 1005.7
20260504043727 2 0.0 0.0 0.00 0.03 0.00 71 1005.7
20260504043222 2 0.0 0.0 0.00 0.03 0.00 71 1005.7
20260504042705 2 0.0 0.0 0.00 0.03 0.00 71 1005.8
20260504042233 2 0.0 0.0 0.00 0.03 0.00 71 1005.8
20260504041724 2 0.0 0.0 0.00 0.03 0.00 70 1005.8
20260504041216 2 0.0 0.0 0.00 0.03 0.00 70 1005.8
20260504041209 2 0.0 0.0 0.00 0.03 0.00 70 1005.8
20260504040714 2 0.0 0.0 0.00 0.03 0.00 69 1005.8
20260504040707 2 0.0 0.0 0.00 0.03 0.00 69 1005.8
20260504040213 3 0.0 0.0 0.00 0.03 0.03 69 1005.8
20260504040205 3 0.0 0.0 0.00 0.03 0.03 69 1005.8
20260504035712 3 0.0 0.0 0.00 0.03 0.03 69 1005.8
20260504035706 3 0.0 0.0 0.00 0.03 0.03 69 1005.8
20260504035225 3 0.0 0.0 0.00 0.03 0.03 69 1005.8
20260504034713 3 0.0 0.0 0.00 0.03 0.03 69 1006.0
20260504034705 3 0.0 0.0 0.00 0.03 0.03 69 1006.0
20260504034228 3 0.0 0.0 0.00 0.03 0.03 70 1005.9
20260504033714 3 0.0 0.0 0.00 0.03 0.03 69 1006.0
20260504033707 3 0.0 0.0 0.00 0.03 0.03 69 1006.0
20260504033221 2 0.0 0.0 0.00 0.03 0.03 70 1006.0
20260504032713 2 0.0 0.0 0.00 0.03 0.03 71 1006.0
20260504032706 2 0.0 0.0 0.00 0.03 0.03 71 1006.0
20260504032213 2 0.0 0.0 0.00 0.03 0.03 69 1006.0
20260504032206 2 0.0 0.0 0.00 0.03 0.03 69 1006.0
20260504031713 2 0.0 0.0 0.00 0.03 0.03 69 1006.0
20260504031706 2 0.0 0.0 0.00 0.03 0.03 69 1006.0
20260504031205 2 0.0 0.0 0.00 0.03 0.03 68 1005.9
20260504030712 2 0.0 0.0 0.00 0.03 0.03 68 1005.9
20260504030705 2 0.0 0.0 0.00 0.03 0.03 68 1005.9
20260504030214 2 0.0 0.0 0.00 0.03 0.03 67 1005.8
20260504030207 2 0.0 0.0 0.00 0.03 0.03 67 1005.8
20260504025713 2 0.0 0.0 0.00 0.03 0.03 67 1005.8
20260504025706 2 0.0 0.0 0.00 0.03 0.03 67 1005.8
20260504025213 2 0.0 0.0 0.00 0.03 0.03 67 1005.7
20260504025205 2 0.0 0.0 0.00 0.03 0.03 67 1005.7
20260504024705 3 0.0 0.0 0.00 0.03 0.03 67 1005.7
20260504024213 3 0.0 0.0 0.00 0.03 0.03 66 1005.7
20260504024206 3 0.0 0.0 0.00 0.03 0.03 66 1005.7
20260504023712 3 0.0 0.0 0.00 0.03 0.03 65 1005.7
20260504023705 3 0.0 0.0 0.00 0.03 0.03 65 1005.7
20260504023213 3 0.0 0.0 0.00 0.03 0.03 65 1005.8
20260504023206 3 0.0 0.0 0.00 0.03 0.03 65 1005.8
20260504022713 3 0.0 0.0 0.00 0.03 0.03 64 1005.8
20260504022706 3 0.0 0.0 0.00 0.03 0.03 64 1005.8
20260504022225 3 0.0 0.0 0.00 0.03 0.03 64 1005.8
20260504021713 3 0.0 0.0 0.00 0.03 0.03 64 1005.8
20260504021706 3 0.0 0.0 0.00 0.03 0.03 64 1005.8
20260504021212 3 0.0 0.0 0.00 0.03 0.03 64 1005.8
20260504021205 3 0.0 0.0 0.00 0.03 0.03 64 1005.8
20260504020708 3 0.0 0.0 0.00 0.03 0.03 63 1005.9
20260504020213 3 0.0 0.0 0.00 0.03 0.03 62 1005.9
20260504020205 3 0.0 0.0 0.00 0.03 0.03 62 1005.9
20260504015705 4 0.0 0.0 0.00 0.03 0.03 60 1005.9
20260504015213 4 0.0 0.0 0.00 0.03 0.03 59 1005.8
20260504015206 4 0.0 0.0 0.00 0.03 0.03 59 1005.8
20260504014206 5 0.0 0.0 0.00 0.03 0.03 57 1005.8
20260504013712 5 0.0 0.0 0.00 0.03 0.03 56 1005.8
20260504013705 5 0.0 0.0 0.00 0.03 0.03 56 1005.8
20260504013214 5 0.0 0.0 0.00 0.03 0.03 55 1005.9
20260504013207 5 0.0 0.0 0.00 0.03 0.03 55 1005.9
20260504012705 5 0.0 0.0 0.00 0.03 0.03 55 1005.9
20260504012205 6 0.0 0.0 0.00 0.03 0.03 54 1005.9
20260504011716 6 0.0 0.0 0.00 0.03 0.03 53 1005.9
20260504011708 6 0.0 0.0 0.00 0.03 0.03 53 1005.9
20260504011228 6 0.0 0.0 0.00 0.03 0.03 52 1005.8
20260504010715 6 0.0 0.0 0.00 0.03 0.03 53 1005.7
20260504010708 6 0.0 0.0 0.00 0.03 0.03 53 1005.7
20260504010213 6 0.0 0.0 0.00 0.03 0.03 52 1005.8
20260504010205 6 0.0 0.0 0.00 0.03 0.03 52 1005.8
20260504005713 6 0.0 0.0 0.00 0.03 0.03 53 1005.7
20260504005706 6 0.0 0.0 0.00 0.03 0.03 53 1005.7
20260504005232 6 0.0 0.0 0.00 0.03 0.03 51 1005.8
20260504004713 6 0.0 0.0 0.00 0.03 0.03 51 1005.8
20260504004706 6 0.0 0.0 0.00 0.03 0.03 51 1005.8
20260504004207 6 0.0 0.0 0.00 0.03 0.03 50 1005.7
20260504003716 6 0.0 0.0 0.00 0.03 0.03 49 1005.7
20260504003709 6 0.0 0.0 0.00 0.03 0.03 49 1005.7
20260504003232 7 0.0 0.0 0.00 0.03 0.03 49 1005.7
20260504002706 7 0.0 0.0 0.00 0.03 0.03 48 1005.7
20260504002212 7 0.0 0.0 0.00 0.03 0.03 48 1005.6
20260504002205 7 0.0 0.0 0.00 0.03 0.03 48 1005.6
20260504001712 7 0.0 0.0 0.00 0.03 0.03 48 1005.6
20260504001705 7 0.0 0.0 0.00 0.03 0.03 48 1005.6
20260504001213 7 0.0 0.0 0.00 0.03 0.03 49 1005.6
20260504001206 7 0.0 0.0 0.00 0.03 0.03 49 1005.6
20260504000735 7 0.0 0.0 0.00 0.03 0.03 48 1005.7
20260504000213 7 0.0 0.0 0.00 0.03 0.03 48 1005.6
20260504000206 7 0.0 0.0 0.00 0.03 0.03 48 1005.6
20260503235716 7 0.0 0.0 0.00 0.03 0.03 47 1005.5
20260503235709 7 0.0 0.0 0.00 0.03 0.03 47 1005.5
20260503235214 7 0.0 0.0 0.00 0.03 0.03 46 1005.5
20260503235207 7 0.0 0.0 0.00 0.03 0.03 46 1005.5
20260503234706 7 0.0 0.0 0.00 0.03 0.03 47 1005.5
20260503234213 7 0.0 0.0 0.00 0.03 0.03 46 1005.5
20260503234206 7 0.0 0.0 0.00 0.03 0.03 46 1005.5
20260503233713 8 0.0 0.0 0.00 0.03 0.03 46 1005.5
20260503233706 8 0.0 0.0 0.00 0.03 0.03 46 1005.5
20260503233213 8 0.0 0.0 0.00 0.03 0.03 46 1005.4
20260503233206 8 0.0 0.0 0.00 0.03 0.03 46 1005.4
20260503232713 8 0.0 0.0 0.00 0.03 0.03 46 1005.3
20260503232705 8 0.0 0.0 0.00 0.03 0.03 46 1005.3
20260503232206 8 0.0 0.0 0.00 0.03 0.03 45 1005.2
20260503231714 8 0.0 0.0 0.00 0.03 0.03 44 1005.2
20260503231707 8 0.0 0.0 0.00 0.03 0.03 44 1005.2
20260503231213 8 0.0 0.0 0.00 0.03 0.03 44 1005.2
20260503231206 8 0.0 0.0 0.00 0.03 0.03 44 1005.2
20260503230705 8 0.0 0.0 0.00 0.03 0.03 44 1005.2
20260503230224 8 0.0 0.0 0.00 0.03 0.03 43 1005.2
20260503225715 9 0.0 0.0 0.00 0.03 0.03 43 1005.2
20260503225707 9 0.0 0.0 0.00 0.03 0.03 43 1005.2
20260503225212 9 0.0 0.0 0.00 0.03 0.03 43 1005.2
20260503225205 9 0.0 0.0 0.00 0.03 0.03 43 1005.2
20260503224712 9 0.0 0.0 0.00 0.03 0.03 43 1005.2
20260503224705 9 0.0 0.0 0.00 0.03 0.03 43 1005.2
20260503224233 9 0.0 0.0 0.00 0.03 0.03 43 1005.2
20260503223713 9 0.0 0.0 0.00 0.03 0.03 43 1005.1
20260503223706 9 0.0 0.0 0.00 0.03 0.03 43 1005.1
20260503223213 9 0.0 0.0 0.00 0.03 0.03 42 1005.1
20260503223206 9 0.0 0.0 0.00 0.03 0.03 42 1005.1
20260503222714 9 0.0 0.0 0.00 0.03 0.03 43 1005.1
20260503222707 9 0.0 0.0 0.00 0.03 0.03 43 1005.1
20260503222212 10 0.0 0.0 0.00 0.03 0.03 42 1005.1
20260503222205 10 0.0 0.0 0.00 0.03 0.03 42 1005.1
20260503221705 10 0.0 0.0 0.00 0.03 0.03 42 1005.1
20260503221213 10 0.0 0.0 0.00 0.03 0.03 43 1005.0
20260503221206 10 0.0 0.0 0.00 0.03 0.03 43 1005.0
20260503220716 10 0.0 0.0 0.00 0.03 0.03 43 1004.9
20260503220709 10 0.0 0.0 0.00 0.03 0.03 43 1004.9
20260503220212 9 0.0 0.0 0.00 0.03 0.03 43 1005.0
20260503220205 9 0.0 0.0 0.00 0.03 0.03 43 1005.0
20260503215213 9 0.0 0.0 0.00 0.03 0.03 41 1005.0
20260503215206 9 0.0 0.0 0.00 0.03 0.03 41 1005.0
20260503214712 10 0.0 0.0 0.00 0.03 0.03 42 1005.0
20260503214705 10 0.0 0.0 0.00 0.03 0.03 42 1005.0
20260503214213 10 0.0 0.0 0.00 0.03 0.03 41 1005.1
20260503214206 10 0.0 0.0 0.00 0.03 0.03 41 1005.1
20260503213712 10 0.0 0.0 0.00 0.03 0.03 43 1005.0
20260503213705 10 0.0 0.0 0.00 0.03 0.03 43 1005.0
20260503213213 10 0.0 0.0 0.00 0.03 0.03 42 1005.0
20260503213206 10 0.0 0.0 0.00 0.03 0.03 42 1005.0
20260503212212 10 0.0 0.0 0.00 0.03 0.03 43 1005.1
20260503212205 10 0.0 0.0 0.00 0.03 0.03 43 1005.1
20260503211713 10 0.0 0.0 0.00 0.03 0.03 41 1005.1
20260503211706 10 0.0 0.0 0.00 0.03 0.03 41 1005.1
20260503210714 10 0.0 0.0 0.00 0.05 0.03 43 1005.1
20260503210706 10 0.0 0.0 0.00 0.05 0.03 43 1005.1
20260503210212 10 0.0 0.0 0.00 0.05 0.03 41 1005.1
20260503210205 10 0.0 0.0 0.00 0.05 0.03 41 1005.1
20260503205713 11 0.0 0.0 0.00 0.05 0.03 41 1005.1
20260503205705 11 0.0 0.0 0.00 0.05 0.03 41 1005.1
20260503205211 11 0.0 0.0 0.00 0.05 0.03 41 1005.1
20260503204713 11 0.0 0.0 0.00 0.05 0.03 41 1005.1
20260503204706 11 0.0 0.0 0.00 0.05 0.03 41 1005.1
20260503204213 11 0.0 0.0 0.00 0.05 0.03 41 1005.1
20260503204206 11 0.0 0.0 0.00 0.05 0.03 41 1005.1
20260503203206 11 0.0 0.0 0.00 0.05 0.03 41 1005.1
20260503202712 11 0.0 0.0 0.00 0.05 0.03 39 1005.1
20260503202705 11 0.0 0.0 0.00 0.05 0.03 39 1005.1
20260503202212 11 0.0 0.0 0.00 0.05 0.03 42 1005.1
20260503202205 11 0.0 0.0 0.00 0.05 0.03 42 1005.1
20260503201714 10 0.0 0.0 0.00 0.05 0.03 43 1005.0
20260503201707 10 0.0 0.0 0.00 0.05 0.03 43 1005.0
20260503201205 10 0.0 0.0 0.00 0.05 0.03 42 1005.1
20260503200712 10 0.0 0.0 0.00 0.08 0.03 42 1005.1
20260503200706 10 0.0 0.0 0.00 0.08 0.03 42 1005.1
20260503200212 10 0.0 0.0 0.00 0.08 0.03 41 1005.1
20260503200205 10 0.0 0.0 0.00 0.08 0.03 41 1005.1
20260503195707 10 0.0 0.0 0.00 0.08 0.03 44 1005.2
20260503195213 10 0.0 0.0 0.00 0.08 0.03 43 1005.1
20260503195205 10 0.0 0.0 0.00 0.08 0.03 43 1005.1
20260503194235 10 0.0 0.0 0.00 0.08 0.03 43 1005.1
20260503193731 10 0.0 0.0 0.00 0.08 0.03 43 1005.1
20260503192733 10 0.0 0.0 0.00 0.08 0.03 41 1005.0
20260503192206 10 0.0 0.0 0.00 0.08 0.03 41 1005.1
20260503191712 10 0.0 0.0 0.00 0.08 0.03 42 1005.1
20260503191705 10 0.0 0.0 0.00 0.08 0.03 42 1005.1
20260503191207 10 0.0 0.0 0.00 0.08 0.03 43 1005.2
20260503190712 10 0.0 0.0 0.00 0.08 0.03 42 1005.3
20260503190705 10 0.0 0.0 0.00 0.08 0.03 42 1005.3
20260503190214 10 0.0 0.0 0.00 0.08 0.03 43 1005.2
20260503190206 10 0.0 0.0 0.00 0.08 0.03 43 1005.2
20260503185712 10 0.0 0.0 0.00 0.08 0.03 41 1005.1
20260503185705 10 0.0 0.0 0.00 0.08 0.03 41 1005.1
20260503185209 10 0.0 0.0 0.00 0.08 0.03 41 1005.0
20260503184705 10 0.0 0.0 0.00 0.08 0.03 42 1005.1
20260503184212 10 0.0 0.0 0.00 0.08 0.03 43 1005.1
20260503184205 10 0.0 0.0 0.00 0.08 0.03 43 1005.1
20260503183705 10 0.0 0.0 0.00 0.08 0.03 42 1005.2
20260503183206 10 0.0 0.0 0.00 0.08 0.03 42 1005.2
20260503182713 10 0.0 0.0 0.00 0.08 0.03 42 1005.2
20260503182706 10 0.0 0.0 0.00 0.08 0.03 42 1005.2
20260503182214 10 0.0 0.0 0.00 0.08 0.03 40 1005.4
20260503182206 10 0.0 0.0 0.00 0.08 0.03 40 1005.4
20260503181713 11 0.0 0.0 0.00 0.08 0.03 41 1005.3
20260503181705 11 0.0 0.0 0.00 0.08 0.03 41 1005.3
20260503181213 11 0.0 0.0 0.00 0.08 0.03 42 1005.5
20260503181206 11 0.0 0.0 0.00 0.08 0.03 42 1005.5
20260503180714 11 0.0 0.0 0.00 0.08 0.03 42 1005.5
20260503180707 11 0.0 0.0 0.00 0.08 0.03 42 1005.5
20260503180225 11 0.0 0.0 0.00 0.08 0.03 42 1005.4
20260503175726 11 0.0 0.0 0.00 0.08 0.03 44 1005.5
20260503175213 11 0.0 0.0 0.00 0.08 0.03 40 1005.5
20260503175205 11 0.0 0.0 0.00 0.08 0.03 40 1005.5
20260503174712 11 0.0 0.0 0.00 0.08 0.03 42 1005.5
20260503174704 11 0.0 0.0 0.00 0.08 0.03 42 1005.5
20260503174206 11 0.0 0.0 0.00 0.08 0.03 41 1005.5
20260503173712 11 0.0 0.0 0.00 0.08 0.03 40 1005.5
20260503173705 11 0.0 0.0 0.00 0.08 0.03 40 1005.5
20260503173221 11 0.0 0.0 0.00 0.08 0.03 43 1005.5
20260503172712 11 0.0 0.0 0.00 0.08 0.03 41 1005.6
20260503172705 11 0.0 0.0 0.00 0.08 0.03 41 1005.6
20260503172213 11 0.0 0.0 0.00 0.08 0.03 39 1005.5
20260503172205 11 0.0 0.0 0.00 0.08 0.03 39 1005.5
20260503171712 11 0.0 0.0 0.00 0.08 0.03 40 1005.7
20260503171705 11 0.0 0.0 0.00 0.08 0.03 40 1005.7
20260503171228 11 0.0 0.0 0.00 0.08 0.03 41 1005.7
20260503170712 11 0.0 0.0 0.00 0.08 0.03 39 1005.7
20260503170705 11 0.0 0.0 0.00 0.08 0.03 39 1005.7
20260503170212 11 0.0 0.0 0.00 0.08 0.03 38 1005.7
20260503170205 11 0.0 0.0 0.00 0.08 0.03 38 1005.7
20260503160213 10 0.0 0.0 0.00 0.08 0.03 38 1006.7
20260503160206 10 0.0 0.0 0.00 0.08 0.03 38 1006.7